User: anonymous   Login
Location: Dresden
(51.0300°N, 13.7800°E)
Time: 08:06:02
(UTC+02:00)
Language:

METEOR M2-4 - Orbit

View from above orbital plane
View from above orbital plane
View from above satellite
View from above satellite

Ground track
Ground track

The orbit data is extracted from the following two-line orbital elements,

1 59051U 24039A   24140.85323166  .00000176  00000-0  98817-4 0  9994
2 59051  98.5959 103.4473 0006542 198.1866 161.9079 14.22225335 11469
Epoch (UTC): 19 May 2024 20:28:39
Eccentricity: 0.0006542
inclination: 98.5959°
perigee height: 813 km
apogee height: 822 km
right ascension of ascending node: 103.4473°
argument of perigee: 198.1866°
revolutions per day: 14.22225335
mean anomaly at epoch: 161.9079°
orbit number at epoch: 1146

The dashed part of the orbit path shows where the satellite is in the earth's shadow,  

DLR